Location: ????????
(56.1167°N, 38.6333°E)
Time: 20:20:57
(UTC+00:00)

COSMO-SKYMED 1 - Pass Details

Date: 18 November 2025
Orbit: 579 x 581 km, 97.9° (Epoch: 14 December)

Event Time Altitude Azimuth Distance (km) Brightness Sun altitude
Exits shadow 15:51:43 43° 155° (SSE) 828 3.0 -21.7°
Drops below altitude 10° 15:54:42 10° 182° (S) 1,894 5.1 -22.1°
Sets 15:56:52 0° 186° (S) 2,788 6.0 -22.4°
